Starlink 30374

operational
NORAD ID: 57809 Int'l Des: 2023-138 Owner: SPXS Country: US Constellation: starlink
LEOCIRCULAR

Über Starlink 30374

Beschreibung wird geladen...

Live-Position

3D-Globus wird geladen...

Nächste Überflüge

Höhenverlauf

Altitude vs Time

uPlot chart will show altitude changes over time

Zweizeiliger Elementsatz

1 57809U 23138B 26035.52827845 -.00000013 00000-0 14137-4 0 9998
2 57809 43.0033 56.6069 0001135 273.0648 87.0065 15.02534962133725
Epoch: 4. Feb. 2026 • Age: 21 hours

Aktueller Status

Höhe 559.8 km
Geschwindigkeit 7.59 km/s
Subsatellitenpunkt 27.76°N, 166.31°E
Startdatum 9. Sept. 2023
Alter 2.4 years
Typ internet

Technische Details

Klassifizierung Payload
Masse 730.00 kg
Trockenmasse 700.00 kg
Gesamtmasse 730.00 kg
Länge 0.30 m
Durchmesser 4.10 m
Spannweite 29.00 m
Form Box + pan
Hersteller SPXS
Bus-Typ Starlink V2M
Phasenstatus In Orbit
Besitzer/Staat SPXS/US

Große Konstellationen

Loading constellations...